[[{"header":{"parameterUnit":"m.s-1","parameterCategory":1,"la1":30.2992,"la2":30.254,"lo1":-89.0895,"lo2":-89.0443,"dy":0.0025,"dx":0.0025,"nx":19,"ny":19,"refTime":"2026-05-07T03:00:00:Z","depth":0,"parameterNumber":2,"parameterNumberName":"U-component_of_WINDS"},"data":[0,0,0,-0.1143,-0.1142,-0.1119,-0.1119,-0.1082,-0.1082,0,0,0,0,0,0,0,0,0,0,0,-0.115,-0.1149,-0.1143,-0.1142,-0.1119,-0.1119,-0.1082,-0.1082,0,0,0,0,0,0,0,0,0,0,0,-0.115,-0.1149,-0.1149,-0.1142,-0.1119,-0.1119,-0.1082,-0.1101,0,0,0,0,0,0,0,0,0,0,-0.1124,-0.1133,-0.115,-0.1149,-0.1142,-0.1119,-0.1119,-0.1102,-0.11,-0.1091,0,-0.1086,0,-0.1084,-0.1079,-0.1079,0,0,0,-0.1141,-0.1135,-0.1128,-0.1149,-0.1142,-0.1119,-0.1129,-0.1101,-0.1099,-0.1088,-0.1086,-0.1085,-0.1083,-0.1079,-0.1079,-0.1033,-0.1033,0,0,-0.1142,-0.1145,-0.113,-0.1127,-0.1134,-0.113,-0.1128,-0.11,-0.1096,-0.1086,-0.1084,-0.1082,-0.1079,-0.1078,-0.1033,-0.1033,0,0,0,-0.1147,-0.1146,-0.114,-0.1128,-0.1124,-0.1129,-0.1128,-0.1098,-0.1096,-0.1083,-0.1082,-0.1078,-0.1078,-0.1033,-0.1033,-0.1026,0,0,0,-0.1147,-0.1149,-0.1141,-0.1142,-0.1125,-0.1112,-0.1126,-0.1098,-0.1094,-0.1082,-0.1078,-0.1078,-0.1034,-0.1033,-0.1027,-0.1022,0,0,0,-0.1151,-0.1149,-0.1146,-0.1143,-0.1133,-0.1112,-0.1109,-0.1097,-0.1093,-0.1079,-0.1077,-0.1034,-0.1033,-0.1027,-0.1023,-0.1007,0,0,0,-0.1155,-0.1142,-0.1146,-0.113,-0.1133,-0.111,-0.1109,-0.1091,-0.1078,-0.1078,-0.1034,-0.1033,-0.1027,-0.1024,-0.1008,-0.0994,-0.0989,0,0,-0.114,-0.1141,-0.113,-0.1133,-0.1109,-0.1113,-0.1086,-0.1071,-0.1066,-0.1043,-0.1042,-0.1026,-0.1023,-0.1008,-0.0964,-0.0961,0,0,0,-0.1126,-0.1119,-0.1112,-0.11,-0.1088,-0.1075,-0.1064,-0.1057,-0.1037,-0.1057,-0.1018,-0.1016,-0.1006,-0.0999,-0.0996,-0.0985,-0.1031,-0.1031,-0.1031,-0.111,-0.1103,-0.1084,-0.1074,-0.1061,-0.1047,-0.1034,-0.1021,-0.1021,-0.101,-0.1004,-0.0978,-0.097,-0.0968,-0.0957,-0.0997,-0.0997,-0.0997,-0.0997,-0.1085,-0.1072,-0.1066,-0.1046,-0.1037,-0.1018,-0.1,-0.0999,-0.0976,-0.0985,-0.0976,-0.0984,-0.0964,-0.0954,-0.0997,-0.0997,-0.0997,-0.0997,-0.0997,-0.1072,-0.1064,-0.1056,-0.1033,-0.1015,-0.1003,-0.098,-0.0973,-0.0966,-0.0958,-0.0946,-0.0946,-0.0942,-0.0953,-0.0953,-0.0952,-0.0952,-0.0952,-0.0952,-0.1062,-0.1052,-0.1036,-0.1018,-0.1005,-0.0988,-0.0968,-0.0954,-0.0936,-0.0932,-0.0931,-0.0927,-0.0965,-0.0972,-0.0951,-0.0951,-0.0951,-0.0951,-0.0951,-0.1037,-0.104,-0.1016,-0.1003,-0.0976,-0.0955,-0.0944,-0.0915,-0.0902,-0.0889,-0.0885,-0.0915,-0.0914,-0.0917,-0.0923,-0.089,-0.089,-0.089,-0.089,-0.1025,-0.1024,-0.0993,-0.0972,-0.095,-0.0936,-0.0899,-0.088,-0.086,-0.085,-0.0853,-0.0861,-0.0864,-0.0862,-0.0865,-0.0871,-0.0825,-0.0825,-0.0825,-0.1008,-0.1002,-0.0977,-0.0959,-0.0936,-0.0913,-0.0877,-0.0848,-0.0826,-0.0822,-0.084,-0.0843,-0.0856,-0.0861,-0.086,-0.0866,-0.0876,0,0]},{"header":{"parameterUnit":"m.s-1","parameterCategory":1,"la1":30.2992,"la2":30.254,"lo1":-89.0895,"lo2":-89.0443,"dy":0.0025,"dx":0.0025,"nx":19,"ny":19,"refTime":"2026-05-07T03:00:00:Z","depth":0,"parameterNumber":3,"parameterNumberName":"V-component_of_WINDS"},"data":[0,0,0,-2.2546,-2.2547,-2.2586,-2.2586,-2.2634,-2.2635,0,0,0,0,0,0,0,0,0,0,0,-2.2534,-2.2534,-2.2546,-2.2547,-2.2586,-2.2586,-2.2634,-2.2635,0,0,0,0,0,0,0,0,0,0,0,-2.2534,-2.2534,-2.2535,-2.2547,-2.2586,-2.2586,-2.2634,-2.2605,0,0,0,0,0,0,0,0,0,0,-2.2567,-2.2556,-2.2534,-2.2535,-2.2547,-2.2586,-2.2586,-2.2604,-2.2607,-2.2616,0,-2.2625,0,-2.2631,-2.2638,-2.2638,0,0,0,-2.2546,-2.2554,-2.2565,-2.2535,-2.2547,-2.2586,-2.2568,-2.2605,-2.2609,-2.262,-2.2626,-2.2628,-2.2632,-2.2638,-2.2639,-2.2696,-2.2696,0,0,-2.2544,-2.2541,-2.2562,-2.2567,-2.2562,-2.2567,-2.2569,-2.2608,-2.2613,-2.2626,-2.2629,-2.2633,-2.2639,-2.2639,-2.2696,-2.2696,0,0,0,-2.2538,-2.2539,-2.2549,-2.2565,-2.2572,-2.2568,-2.2571,-2.2611,-2.2615,-2.2629,-2.2633,-2.2639,-2.264,-2.2695,-2.2696,-2.2707,0,0,0,-2.2537,-2.2536,-2.2548,-2.2546,-2.2572,-2.2592,-2.2574,-2.2612,-2.2617,-2.2633,-2.2639,-2.264,-2.2695,-2.2696,-2.2706,-2.2712,0,0,0,-2.2531,-2.2535,-2.2541,-2.2546,-2.2563,-2.2592,-2.2598,-2.2613,-2.2619,-2.2638,-2.264,-2.2695,-2.2696,-2.2705,-2.2711,-2.2727,0,0,0,-2.2524,-2.2549,-2.2541,-2.257,-2.2563,-2.2599,-2.2598,-2.2624,-2.2642,-2.2639,-2.2695,-2.2696,-2.2705,-2.271,-2.2726,-2.274,-2.2745,0,0,-2.2553,-2.2552,-2.257,-2.2564,-2.2601,-2.2593,-2.2631,-2.265,-2.2655,-2.2682,-2.2683,-2.2706,-2.2711,-2.2727,-2.2777,-2.2781,0,0,0,-2.2578,-2.259,-2.2601,-2.2618,-2.2634,-2.2649,-2.2663,-2.267,-2.2693,-2.2668,-2.2716,-2.2719,-2.2728,-2.2735,-2.2739,-2.2747,-2.2699,-2.2699,-2.2699,-2.2613,-2.2619,-2.2648,-2.2659,-2.2676,-2.2691,-2.2705,-2.2716,-2.2716,-2.2727,-2.2735,-2.2765,-2.2773,-2.2776,-2.2784,-2.2743,-2.2743,-2.2743,-2.2743,-2.2656,-2.2675,-2.2676,-2.2704,-2.271,-2.2734,-2.2749,-2.2748,-2.277,-2.2759,-2.2768,-2.2756,-2.278,-2.2788,-2.2744,-2.2744,-2.2744,-2.2744,-2.2744,-2.268,-2.269,-2.27,-2.2726,-2.2746,-2.2756,-2.2778,-2.2781,-2.2785,-2.2793,-2.2802,-2.2802,-2.2803,-2.2798,-2.2798,-2.2798,-2.2798,-2.2798,-2.2798,-2.2701,-2.2712,-2.273,-2.2751,-2.2763,-2.2779,-2.2795,-2.2806,-2.282,-2.2821,-2.2821,-2.282,-2.2782,-2.2772,-2.28,-2.2799,-2.2799,-2.2799,-2.2799,-2.2743,-2.2735,-2.2764,-2.2776,-2.28,-2.282,-2.2825,-2.2849,-2.2859,-2.287,-2.2867,-2.2838,-2.2837,-2.2834,-2.2826,-2.2865,-2.2865,-2.2865,-2.2865,-2.2763,-2.2764,-2.2795,-2.2815,-2.2834,-2.2842,-2.2874,-2.2886,-2.2897,-2.2904,-2.2899,-2.2888,-2.2885,-2.2886,-2.2882,-2.2875,-2.2926,-2.2926,-2.2926,-2.2789,-2.2792,-2.2819,-2.2831,-2.2851,-2.2867,-2.2897,-2.2919,-2.2929,-2.2928,-2.2909,-2.2906,-2.289,-2.2884,-2.2882,-2.2876,-2.2863,0,0]}]]